Location: *
(32.8140°S, 174.6161°E)
Time: 19:42:54
(UTC+00:00)

Cosmos 2219 - Pass Details

Date: 10 December 2019
Orbit: 834 x 859 km, 71.1° (Epoch: 21 January)

Event Time Altitude Azimuth Distance (km) Brightness Sun altitude
Rises 13:35:44 0° 208° (SSW) 3,456 6.9 -31.0°
Reaches altitude 10° 13:38:18 10° 214° (SSW) 2,510 6.0 -30.8°
Enters shadow 13:41:36 32° 235° (SW) 1,450 4.4 -30.5°
